New Baltimore, MI

1:28 AM EST on February 26, 2017 (GMT -0500)
Selfridge Angb

Weather History for KMTC - March, 2014

Change the Weather History Date:

Saturday, March 29, 2014

  Actual Average Record
Temperature  
Mean Temperature 34 °F -  
Max Temperature 36 °F 51 °F 75 °F (1977)
Min Temperature 31 °F 33 °F 19 °F (1970)
Degree Days  
Heating Degree Days 31    
Moisture  
Dew Point 29 °F    
Average Humidity 83    
Maximum Humidity 89    
Minimum Humidity 73    
Precipitation  
Precipitation 0.00 in - - ()
Sea Level Pressure  
Sea Level Pressure 30.16 in    
Wind  
Wind Speed 12 mph (NNE)    
Max Wind Speed 20 mph    
Max Gust Speed 25 mph    
Visibility 8 miles    
Events      
Averages and records for this station are not official NWS values.
T = Trace of Precipitation, MM = Missing Value Source: NWS Daily Summary

Daily Weather History Graph

Daily Weather History Graph

Search for Another Location

Airport or City:

Trip Planner

Search our weather history database for the weather conditions in past years. The results will help you decide how hot, cold, wet, or windy it might be!

Date:

Astronomy

Mar. 29, 2014 Rise Set
Actual Time 7:18 AM EDT 7:53 PM EDT
Civil Twilight 6:50 AM EDT 8:22 PM EDT
Nautical Twilight 6:17 AM EDT 8:55 PM EDT
Astronomical Twilight 5:42 AM EDT 9:30 PM EDT
Moon 6:28 AM EDT (3/29) 6:57 PM EDT (3/29)
Length of Visible Light 13h 31m
Length of Day
12h 35m
Waning Crescent, 2% of the Moon is Illuminated
Mar 29
Waning Crescent
Mar 30
New
Apr 7
First Quarter
Apr 15
Full
Apr 22
Last Quarter

Hourly Weather History & Observations

Time (EDT) Temp. Windchill Dew Point Humidity Pressure Visibility Wind Dir Wind Speed Gust Speed Precip Events Conditions
12:58 AM 35.4 °F 29.0 °F 31.6 °F 86% 30.21 in 10.0 mi ENE 8.1 mph - N/A   Overcast
1:58 AM 34.7 °F 28.1 °F 30.9 °F 86% 30.20 in 10.0 mi NE 8.1 mph - N/A   Overcast
2:58 AM 34.3 °F 27.0 °F 30.0 °F 84% 30.22 in 10.0 mi East 9.2 mph - N/A   Overcast
3:58 AM 34.0 °F 28.0 °F 29.8 °F 85% 30.22 in 10.0 mi NE 6.9 mph - N/A   Overcast
4:58 AM 33.8 °F 25.8 °F 29.5 °F 84% 30.19 in 10.0 mi NNE 10.4 mph - N/A   Overcast
5:58 AM 33.6 °F 26.2 °F 29.7 °F 85% 30.19 in 10.0 mi NNE 9.2 mph - N/A   Overcast
6:58 AM 33.3 °F 26.4 °F 30.0 °F 88% 30.19 in 10.0 mi NNE 8.1 mph - N/A   Overcast
7:55 AM 33.1 °F 26.9 °F 30.2 °F 89% 30.21 in 5.0 mi NNE 6.9 mph - N/A   Overcast
8:55 AM 33.1 °F 24.9 °F 29.8 °F 88% 30.20 in 5.0 mi NNE 10.4 mph - N/A   Overcast
9:55 AM 34.0 °F 26.6 °F 30.0 °F 85% 30.21 in 5.0 mi NNE 9.2 mph - N/A   Overcast
10:16 AM 33.8 °F 25.3 °F 30.2 °F 87% 30.16 in 5.0 mi NNE 11.5 mph - N/A   Overcast
10:55 AM 34.2 °F 26.2 °F 29.8 °F 84% 30.20 in 7.0 mi NNE 10.4 mph - N/A   Overcast
11:55 AM 34.7 °F 25.5 °F 30.2 °F 84% 30.19 in 7.0 mi North 13.8 mph - N/A   Overcast
12:55 PM 36.0 °F 27.1 °F 30.4 °F 80% 30.17 in 7.0 mi North 13.8 mph - N/A   Overcast
1:22 PM 35.6 °F 26.2 °F 30.2 °F 81% 30.12 in 7.0 mi North 15.0 mph - N/A   Overcast
1:55 PM 36.0 °F 26.7 °F 30.4 °F 80% 30.16 in 7.0 mi NNE 15.0 mph - N/A   Overcast
2:55 PM 35.4 °F 25.6 °F 29.8 °F 80% 30.12 in 7.0 mi North 16.1 mph - N/A   Overcast
3:41 PM 35.6 °F 25.5 °F 28.4 °F 75% 30.07 in 7.0 mi North 17.3 mph - N/A   Overcast
3:55 PM 36.0 °F 25.6 °F 28.2 °F 73% 30.11 in 7.0 mi North 18.4 mph 24.2 mph N/A   Overcast
4:55 PM 35.4 °F 24.6 °F 27.9 °F 74% 30.10 in 7.0 mi North 19.6 mph 25.3 mph N/A   Overcast
5:55 PM 34.5 °F 24.1 °F 27.7 °F 76% 30.10 in 7.0 mi North 17.3 mph 25.3 mph N/A   Overcast
6:55 PM 34.0 °F 23.4 °F 28.0 °F 79% 30.12 in 7.0 mi North 17.3 mph - N/A   Overcast
7:23 PM 33.8 °F 22.8 °F 28.4 °F 81% 30.09 in 7.0 mi North 18.4 mph 25.3 mph N/A   Overcast
7:55 PM 32.7 °F 22.1 °F 28.2 °F 83% 30.13 in 7.0 mi North 16.1 mph 21.9 mph N/A   Overcast
8:35 PM 32.0 °F 20.8 °F 28.4 °F 87% 30.10 in 10.0 mi North 17.3 mph 21.9 mph N/A   Overcast
8:58 PM 32.5 °F 21.2 °F 28.2 °F 84% 30.14 in 10.0 mi North 18.4 mph - N/A   Overcast
9:58 PM 32.2 °F 20.7 °F 28.0 °F 85% 30.15 in 10.0 mi North 18.4 mph 20.7 mph N/A   Overcast
10:33 PM 32.0 °F 21.6 °F 28.4 °F 87% 30.11 in 10.0 mi North 15.0 mph - N/A   Overcast
10:58 PM 32.2 °F 21.1 °F 27.7 °F 83% 30.14 in 10.0 mi North 17.3 mph - N/A   Overcast
11:58 PM 31.5 °F 20.1 °F 26.2 °F 81% 30.14 in 10.0 mi NNW 17.3 mph - N/A   Mostly Cloudy